Content
SEND FEEDBACK

Daily
Averages
Monthly
Summary
United States of America

MCSHERRYSTOWN, PENNSYLVANIA


Home > North America > United States > Pennsylvania
Elevation: 600 feet     Latitude: 39 48N     Longitude: 076 59W

WEATHER
 
SELECT A DAY
Number of Records: 138,241;   Date Range: 2/1/07 - 7/23/14
 
SHARE

PRINT THIS DATA

[ ← Previous Day ]
WEATHER ALMANAC - FEBRUARY 13, 2013
[ Next Day → ]
[ °C ]   °F
Weather ElementAverageHighLow
Temperature33.5 °F42.8 °F (12:45 pm) (1:45 am)
Dewpoint26.1 °F32 °F (8:05 pm) (7:00 pm)
Humidity76.4 %93 % (4:05 am)53 % (12:45 pm)
Barometer29.79 in29.95 in (12:25 am)29.67 in (3:25 pm)
Wind Speed2.5 mph8.1 mph (12:45 pm)
Weather ElementAverage
Visibility7.3 mi
Wind DirectionENE (57.5 °)

Weather ElementTotal
Precipitation0.10 in
Heating Degree Days43.6 (Base 65)
Averaged from 68 records on February 13, 2013
WEATHER CONDITIONS BREAKOUT
WIND DIRECTION BREAKOUT
WEATHER BY HOUR - FEBRUARY 13, 2013
[ °C ]   °F
Local TimeTemperatureDewpointHumidityBarometerVisibilityWind DirectionWind SpeedGust SpeedPrecipitationEventsConditions
12:25 AM32.0 °F24.8 °F75 %29.95 in10.0 miCalm
12:45 AM32.0 °F24.8 °F75 %29.95 in10.0 miCalm
1:05 AM30.2 °F24.8 °F80 %29.95 in10.0 miCalm
1:25 AM30.2 °F24.8 °F80 %29.94 in10.0 miCalm
1:45 AM0.0 °F0.0 °F29.94 in10.0 miCalm
2:05 AM0.0 °F0.0 °F29.94 in10.0 miCalm
2:25 AM28.4 °F24.8 °F86 %29.92 in7.0 miCalm
2:45 AM28.4 °F24.8 °F86 %29.91 in10.0 miCalm
3:05 AM28.4 °F24.8 °F86 %29.91 in10.0 miCalm
3:25 AM28.4 °F24.8 °F86 %29.90 in10.0 miCalm
3:45 AM28.4 °F24.8 °F86 %29.90 in10.0 miENE (70°)3.5 mph
4:05 AM26.6 °F24.8 °F93 %29.90 in7.0 miENE (60°)3.5 mph
4:25 AM26.6 °F24.8 °F93 %29.88 in7.0 miNE (50°)3.5 mph
4:45 AM26.6 °F23.0 °F86 %29.88 in7.0 miNE (40°)3.5 mph
5:05 AM26.6 °F24.8 °F93 %29.89 in7.0 miCalm
5:25 AM28.4 °F24.8 °F86 %29.88 in10.0 miCalm
5:45 AM28.4 °F24.8 °F86 %29.88 in10.0 miCalm
6:05 AM28.4 °F24.8 °F86 %29.88 in10.0 miCalm
6:25 AM28.4 °F24.8 °F86 %29.88 in10.0 miCalm
6:45 AM26.6 °F24.8 °F93 %29.88 in7.0 miCalm
7:05 AM26.6 °F24.8 °F93 %29.87 in7.0 miCalm
7:25 AM28.4 °F24.8 °F86 %29.86 in7.0 miCalm
7:45 AM28.4 °F24.8 °F86 %29.86 in10.0 miCalm
8:25 AM33.8 °F26.6 °F75 %29.87 in10.0 miSE (140°)3.5 mph
8:45 AM33.8 °F0.0 °F29.87 inCalm
9:05 AM35.6 °F26.6 °F70 %29.86 in10.0 miSSE (150°)3.5 mph
9:25 AM35.6 °F26.6 °F70 %29.86 in10.0 miSSE (150°)3.5 mph
9:45 AM35.6 °F26.6 °F70 %29.86 in10.0 miSSE (150°)3.5 mph
10:05 AM37.4 °F26.6 °F65 %29.85 in10.0 miSE (140°)5.8 mph
10:25 AM37.4 °F24.8 °F60 %29.84 in10.0 miSE (130°)6.9 mph
11:05 AM39.2 °F26.6 °F61 %29.84 in10.0 miSE (130°)4.6 mph
11:25 AM37.4 °F26.6 °F65 %29.82 in10.0 miEast (100°)3.5 mph
11:45 AM39.2 °F26.6 °F61 %29.80 in10.0 miEast (90°)4.6 mph
12:05 PM39.2 °F26.6 °F61 %29.79 in10.0 miEast (100°)4.6 mph
12:25 PM41.0 °F26.6 °F57 %29.75 in10.0 miEast (90°)5.8 mph
12:45 PM42.8 °F26.6 °F53 %29.75 in10.0 miESE (110°)8.1 mph
1:05 PM42.8 °F26.6 °F53 %29.76 in10.0 miSE (130°)3.5 mph
1:25 PM42.8 °F26.6 °F53 %29.75 in10.0 miESE (110°)3.5 mph
1:45 PM42.8 °F26.6 °F53 %29.74 in10.0 miSE (140°)5.8 mph
2:05 PM42.8 °F26.6 °F53 %29.73 in10.0 miCalm
2:25 PM41.0 °F26.6 °F57 %29.71 in10.0 miNE (50°)4.6 mph
2:45 PM42.8 °F26.6 °F53 %29.71 in10.0 miNE (40°)3.5 mph
3:05 PM42.8 °F26.6 °F53 %29.69 in10.0 miEast (100°)4.6 mph
3:25 PM41.0 °F28.4 °F61 %29.67 in10.0 miENE (70°)4.6 mph
3:45 PM41.0 °F28.4 °F61 %29.67 in10.0 miEast (90°)3.5 mph
4:05 PM41.0 °F28.4 °F61 %29.68 in10.0 miSE (140°)3.5 mph
4:25 PM41.0 °F28.4 °F61 %29.67 in10.0 miCalm
4:45 PM41.0 °F28.4 °F61 %29.67 in10.0 miENE (60°)3.5 mphRainLight Rain
5:05 PM39.2 °F30.2 °F70 %29.67 in10.0 miNE (40°)8.1 mphRainLight Rain
5:25 PM37.4 °F30.2 °F75 %29.67 in7.0 miNE (40°)8.1 mphRainLight Rain
5:45 PM37.4 °F30.2 °F75 %29.67 in5.0 miENE (70°)6.9 mphRainLight Rain
6:05 PM35.6 °F30.2 °F81 %29.67 in4.0 miNE (40°)6.9 mph
6:25 PM33.8 °F30.2 °F87 %29.68 in1.8 miNNE (20°)3.5 mphSnowLight Snow
6:45 PM33.8 °F30.2 °F87 %29.68 in1.2 miNE (50°)4.6 mph0.01 inSnowLight Snow
7:05 PM33.8 °F30.2 °F87 %29.68 in1.5 miNNE (30°)3.5 mphSnowLight Snow
7:25 PM33.8 °F30.2 °F87 %29.69 in1.2 miCalm0.01 inSnowLight Snow
7:45 PM33.8 °F30.2 °F87 %29.70 in0.8 miCalm0.01 inSnowLight Snow
8:05 PM33.8 °F32.0 °F93 %29.70 in0.8 miCalm0.01 inSnowSnow
8:25 PM33.8 °F30.2 °F87 %29.70 in1.0 miNorth (10°)3.5 mph0.02 inSnowLight Snow
8:45 PM33.8 °F30.2 °F87 %29.70 in1.2 miNorth (10°)3.5 mph0.03 inSnowLight Snow
9:05 PM33.8 °F30.2 °F87 %29.70 in1.2 miCalmSnowLight Snow
9:25 PM33.8 °F32.0 °F93 %29.71 in1.0 miNW (320°)3.5 mphSnowLight Snow
9:45 PM33.8 °F30.2 °F87 %29.72 in1.0 miCalm0.01 inSnowLight Snow
10:05 PM33.8 °F32.0 °F93 %29.73 in1.2 miNW (320°)3.5 mphSnowLight Snow
10:25 PM33.8 °F30.2 °F87 %29.73 in1.2 miNNW (330°)3.5 mphSnowLight Snow
11:05 PM33.8 °F30.2 °F87 %29.74 in1.5 miCalmSnowLight Snow
11:25 PM33.8 °F30.2 °F87 %29.74 in1.5 miCalmSnowLight Snow
11:45 PM33.8 °F30.2 °F87 %29.75 in1.5 miCalmMist
Hourly data recorded from KDMW, located miles away from McSherrystown, Pennsylvania







STORIES FROM OUR PARTNERS